Location: Friaudour
(46.0460°N, 1.2873°E)
Time: 07:56:47
(UTC+00:00)

Cosmos 1869 Rocket - Pass Details

Date: 14 July 2020
Orbit: 606 x 632 km, 82.5° (Epoch: 14 August)

Event Time Altitude Azimuth Distance (km) Brightness Sun altitude
Exits shadow 02:04:43 31° 228° (SW) 1,064 4.2 -16.7°
Maximum altitude 02:06:23 48° 283° (WNW) 795 3.9 -16.6°
Drops below altitude 10° 02:10:37 10° 358° (N) 1,972 7.0 -16.2°
Sets 02:12:55 0° 5° (N) 2,884 8.1 -16.0°
